Hourly Data Report for October 02, 2014

All times are specified in Local Standard Time (LST). Add 1 hour to adjust for Daylight Saving Time where and when it is observed.

ARVIAT A
NUNAVUT

61°05'38.000" N
94°04'18.000" W
10.40 m
2300427
71174
YEK

Download Data

Hourly Data (October 2014)
Hourly Data Report for October 2, 2014
Temp Definition
°C
Dew Point Temp Definition
°C
Rel Hum Definition
%
Wind Dir Definition
10's deg

Wind Spd Definition
km/h
Visibility Definition
km
Stn Press Definition
kPa
Hmdx Definition


Wind Chill Definition


Weather Definition


TIME
00:00 Legend Double Dagger 3.6 3.3 98 8 45 3.2 99.76     Rain,Fog
01:00 Legend Double Dagger 3.7 3.2 96 8 39 4.0 99.72     Rain,Fog
02:00 Legend Double Dagger 3.5 3.1 97 7 41 2.8 99.64     Rain,Fog
03:00 Legend Double Dagger 3.3 3.0 98 7 45 2.4 99.57     Rain,Fog
04:00 Legend Double Dagger 3.2 2.9 98 6 48 3.2 99.47     Moderate Rain,Fog
05:00 Legend Double Dagger 2.6 2.0 96 6 48 6.4 99.42     Moderate Rain,Fog
06:00 Legend Double Dagger 1.7 1.3 97 5 46 4.8 99.37     Fog
07:00 Legend Double Dagger 1.3 1.0 98 4 39 4.8 99.34     Snow
08:00 Legend Double Dagger 1.8 1.4 97 4 45 4.8 99.28     Fog
09:00 Legend Double Dagger 2.1 1.6 97 4 46 8.1 99.25     Rain,Fog
10:00 Legend Double Dagger 2.1 1.7 97 4 45 6.4 99.21     Rain,Fog
11:00 Legend Double Dagger 2.2 1.8 97 4 48 4.0 99.20     Rain,Fog
12:00 Legend Double Dagger 2.9 2.3 96 4 50 2.8 99.18     Rain,Fog
13:00 Legend Double Dagger 2.7 2.1 96 4 52 2.4 99.19     Rain,Fog
14:00 Legend Double Dagger 2.6 2.0 96 3 50 2.8 99.22     Rain,Fog
15:00 Legend Double Dagger 2.0 1.4 96 3 41 6.4 99.28     Rain,Fog
16:00 Legend Double Dagger 1.7 1.3 97 2 41 4.8 99.40     Rain,Fog
17:00 Legend Double Dagger 0.8 0.5 98 1 34 2.0 99.49     Snow
18:00 Legend Double Dagger 0.6 0.5 99 1 43 1.6 99.58     Snow
19:00 Legend Double Dagger 0.2 0.2 100 36 39 0.6 99.69     Moderate Snow
20:00 Legend Double Dagger -0.2 -0.4 98 36 46 1.2 99.77   -8 Snow
21:00 Legend Double Dagger LegendMM LegendMM LegendMM LegendMM LegendMM LegendMM LegendMM     LegendNANA
22:00 Legend Double Dagger -1.3 -1.7 97 35 50 1.2 99.94   -10 Snow
23:00                    

Notes on Data Quality.

Legend

  • E = Estimated
  • M = Missing
  • NA = Not Available
  • ‡ = Partner data that is not subject to review by the National Climate Archives
Date modified: